Location: Unspecified
(0.0000°N, 0.0000°E)
Time: 16:50:18
(UTC+01:00)

Orbus 21S - Visible Passes

Search period start: 20 February 2018 00:00
Search period end: 02 March 2018 00:00
Orbit: 286 x 32995 km, 24.5° (Epoch: 18 February)

Date Brightness Start Highest point End Pass type
(mag) Time Alt. Az. Time Alt. Az. Time Alt. Az.
20 Feb 7.4 00:21:20 10° WNW 00:26:47 16° NW 00:26:47 16° NW visible
20 Feb 7.2 10:44:53 10° SW 14:37:04 81° NNE 19:43:56 10° ENE visible
21 Feb 5.6 05:51:57 10° S 05:54:40 12° SSE 05:59:11 10° SE visible
21 Feb 10.8 16:43:54 10° W 17:43:39 17° W 19:23:48 10° W visible
22 Feb 7.5 00:43:01 10° WNW 00:43:33 11° WNW 00:43:33 11° WNW visible
22 Feb 7.1 11:02:37 10° SW 14:06:36 84° NE 20:02:00 10° ENE visible
23 Feb 5.8 06:08:51 10° S 06:13:06 15° SSE 06:22:58 10° SE visible
23 Feb 11.2 17:34:52 10° W 18:00:07 11° W 18:30:28 10° W visible
24 Feb 6.9 11:20:24 10° SW 19:45:08 51° NNW 20:18:53 14° ENE visible
25 Feb 6.0 06:25:46 10° SSW 06:31:36 18° SSE 14:57:59 10° ENE visible
26 Feb 6.7 11:38:15 10° WSW 20:13:06 48° NNW 20:35:28 19° NE visible
27 Feb 6.1 06:42:41 10° SSW 06:50:08 22° SSE 15:20:39 10° ENE visible
28 Feb 6.5 11:56:13 10° WSW 20:36:30 47° N 20:51:59 24° NE visible
